Temp
-8 -8 -8 -8 -8 -8 -8 -8 -8 -8 -8 -8 -8 -8 -8 -9 -9 -9 -9 -9 -9 -9 -9 -9 -8 -8 -8 -8 -8 -8 -8 -9 -9
-8 -8 -8 -8 -8 -8 -8 -8 -8 -8 -8 -8 -8 -9 -9 -9 -9 -9 -9 -9 -9 -9 -9 -9 -8 -8 -8 -8 -9 -9 -9 -9 -9
-8 -8 -8 -8 -8 -8 -8 -8 -8 -8 -9 -9 -9 -9 -9 -9 -9 -9 -9 -9 -9 -9 -9 -9 -9 -9 -9 -9 -9 -9 -9 -9 -9
-9 -9 -9 -9 -9 -9 -9 -9 -9 -9 -9 -9 -9 -9 -9 -9 -9 -9 -9 -9 -9 -9 -9 -9 -9 -9 -9 -9 -9 -9 -9 -9 -9
-9 -9 -9 -9 -9 -9 -9 -9 -9 -9 -9 -9 -9 -9 -9 -9 -9 -9 -9 -9 -9 -9 -9 -9 -9 -9 -9 -9 -9 -9 -9 -10 -11
-9 -9 -9 -9 -9 -9 -9 -9 -9 -9 -9 -9 -9 -9 -9 -9 -9 -9 -9 -9 -9 -9 -9 -9 -9 -9 -9 -10 -10 -11 -13 -13 -13
-9 -9 -9 -9 -9 -9 -9 -9 -9 -9 -9 -9 -9 -9 -9 -9 -9 -9 -9 -9 -9 -9 -9 -9 -9 -10 -11 -11 -13 -13 -13 -13 -13
-9 -9 -9 -10 -9 -9 -9 -9 -10 -9 -9 -9 -9 -9 -9 -10 -9 -9 -9 -9 -9 -9 -9 -10 -10 -11 -12 -13 -13 -13 -13 -14 -14
-10 -10 -10 -10 -10 -10 -10 -10 -10 -10 -10 -10 -10 -10 -10 -10 -10 -10 -9 -10 -10 -10 -10 -11 -12 -12 -13 -13 -13 -14 -14 -15 -15
-10 -10 -10 -10 -10 -10 -10 -10 -10 -10 -10 -10 -10 -10 -10 -10 -10 -10 -10 -10 -10 -10 -11 -12 -13 -13 -13 -14 -14 -14 -15 -15 -15
-10 -10 -10 -10 -10 -10 -10 -10 -10 -10 -10 -10 -10 -10 -10 -10 -10 -10 -10 -10 -10 -10 -12 -13 -13 -13 -14 -14 -14 -14 -15 -15 -15
-10 -10 -10 -10 -10 -10 -10 -10 -10 -10 -10 -10 -10 -10 -10 -10 -10 -10 -10 -10 -10 -11 -13 -13 -13 -13 -14 -14 -14 -14 -15 -15 -15
-10 -10 -10 -10 -10 -10 -10 -10 -10 -10 -10 -10 -10 -10 -10 -10 -10 -10 -10 -10 -11 -12 -13 -13 -14 -14 -14 -14 -14 -14 -15 -15 -15
-10 -10 -10 -10 -10 -10 -10 -10 -10 -10 -10 -10 -10 -10 -10 -10 -10 -10 -10 -10 -12 -13 -13 -13 -14 -14 -15 -14 -15 -15 -15 -15 -15
-10 -10 -10 -10 -10 -10 -10 -10 -10 -10 -10 -10 -10 -11 -11 -11 -11 -11 -11 -11 -12 -13 -13 -14 -14 -14 -15 -15 -15 -15 -15 -15 -15
-10 -10 -10 -10 -10 -10 -10 -10 -10 -10 -10 -10 -11 -11 -11 -11 -11 -11 -11 -12 -13 -13 -13 -13 -14 -14 -15 -15 -15 -15 -15 -15 -15
-10 -10 -10 -10 -10 -10 -10 -10 -10 -10 -11 -11 -11 -11 -11 -11 -11 -12 -12 -12 -13 -13 -13 -14 -14 -14 -15 -15 -15 -15 -16 -16 -15
-10 -10 -10 -10 -10 -10 -10 -10 -11 -11 -11 -11 -11 -11 -11 -12 -12 -12 -13 -13 -13 -13 -13 -13 -14 -14 -14 -15 -15 -16 -16 -16 -16
-10 -10 -10 -10 -10 -10 -11 -11 -11 -11 -11 -11 -11 -12 -12 -12 -12 -13 -13 -13 -13 -13 -13 -13 -14 -14 -14 -15 -16 -16 -16 -16 -16
-11 -10 -11 -11 -11 -11 -11 -11 -11 -11 -12 -12 -12 -12 -12 -12 -12 -13 -13 -13 -13 -13 -13 -13 -13 -14 -14 -14 -15 -15 -16 -16 -16
Height
5882 5882 5882 5882 5882 5882 5882 5882 5882 5881 5880 5879 5878 5877 5876 5874 5873 5871 5868 5866 5864 5861 5858 5855 5851 5849 5846 5843 5840 5836 5834 5830 5828
5881 5881 5881 5882 5882 5882 5881 5881 5881 5880 5879 5878 5876 5875 5874 5872 5870 5868 5865 5862 5859 5856 5853 5849 5846 5842 5839 5836 5832 5829 5826 5823 5819
5880 5880 5880 5881 5881 5880 5880 5880 5879 5878 5877 5876 5875 5873 5871 5869 5867 5864 5861 5858 5854 5851 5847 5843 5839 5835 5831 5827 5823 5820 5816 5812 5809
5879 5879 5879 5879 5879 5879 5879 5878 5877 5876 5875 5874 5872 5870 5868 5866 5863 5860 5857 5854 5850 5845 5841 5836 5832 5828 5823 5819 5814 5810 5805 5801 5796
5877 5877 5877 5877 5877 5877 5877 5876 5875 5874 5872 5871 5869 5867 5864 5861 5859 5855 5852 5848 5844 5839 5834 5829 5824 5819 5814 5808 5803 5798 5793 5788 5784
5875 5875 5875 5875 5875 5874 5874 5873 5872 5870 5869 5867 5865 5863 5860 5857 5854 5851 5847 5842 5837 5832 5827 5821 5816 5810 5803 5797 5791 5785 5781 5778 5776
5872 5872 5872 5872 5872 5871 5870 5869 5868 5867 5865 5863 5861 5858 5856 5853 5850 5846 5841 5836 5830 5825 5819 5813 5806 5800 5794 5788 5782 5778 5775 5771 5768
5869 5869 5869 5869 5868 5867 5867 5865 5865 5863 5861 5859 5856 5854 5851 5848 5844 5840 5835 5829 5823 5817 5811 5804 5798 5792 5786 5781 5777 5773 5768 5764 5759
5866 5865 5865 5865 5864 5864 5863 5862 5860 5859 5857 5855 5852 5850 5846 5843 5838 5834 5828 5822 5817 5810 5803 5797 5791 5786 5781 5776 5772 5768 5763 5757 5752
5861 5861 5861 5860 5860 5860 5859 5857 5856 5854 5852 5850 5847 5845 5842 5838 5833 5827 5822 5816 5810 5803 5796 5790 5786 5782 5776 5772 5768 5763 5758 5753 5748
5856 5856 5856 5856 5856 5855 5854 5853 5851 5850 5848 5845 5843 5840 5836 5832 5827 5822 5816 5810 5803 5795 5789 5785 5781 5777 5772 5768 5765 5760 5755 5750 5745
5851 5851 5851 5851 5851 5850 5849 5848 5847 5845 5843 5841 5838 5835 5831 5826 5821 5816 5810 5803 5796 5789 5784 5781 5777 5773 5769 5765 5761 5757 5753 5748 5743
5846 5846 5846 5845 5845 5844 5844 5843 5841 5840 5838 5836 5833 5829 5824 5820 5815 5810 5804 5797 5789 5784 5781 5777 5773 5769 5766 5763 5759 5755 5751 5747 5742
5840 5840 5840 5840 5839 5839 5839 5837 5836 5835 5833 5830 5827 5823 5818 5814 5808 5803 5797 5791 5785 5780 5777 5774 5770 5766 5763 5760 5756 5753 5749 5745 5741
5835 5835 5835 5834 5834 5833 5833 5831 5831 5829 5828 5825 5821 5816 5812 5808 5803 5797 5791 5785 5781 5778 5774 5770 5767 5763 5760 5758 5754 5751 5748 5744 5741
5830 5830 5830 5829 5828 5828 5827 5826 5826 5824 5822 5819 5815 5810 5807 5802 5797 5792 5786 5782 5778 5776 5772 5768 5765 5761 5758 5756 5753 5750 5746 5743 5740
5825 5825 5824 5823 5823 5822 5821 5821 5820 5817 5815 5812 5809 5806 5802 5796 5792 5787 5783 5779 5776 5773 5769 5765 5762 5759 5756 5753 5751 5748 5746 5743 5739
5820 5819 5819 5818 5817 5816 5816 5815 5813 5811 5809 5806 5804 5800 5797 5792 5787 5783 5779 5776 5773 5770 5766 5762 5759 5756 5753 5751 5748 5746 5743 5741 5738
5814 5813 5813 5812 5811 5810 5809 5808 5806 5804 5802 5800 5797 5794 5790 5786 5783 5778 5775 5772 5769 5766 5763 5759 5756 5753 5751 5747 5745 5743 5740 5738 5736
5808 5807 5806 5805 5805 5804 5803 5801 5800 5798 5795 5793 5790 5787 5784 5779 5776 5772 5771 5769 5765 5762 5759 5755 5752 5750 5747 5745 5742 5739 5737 5735 5733
Wind_Speed
4 3 2 2 2 3 4 5 6 8 10 12 15 16 18 19 22 26 29 32 33 32 32 33 34 35 36 37 37 38 38 40 41
4 4 4 4 5 6 6 6 7 10 12 14 16 19 21 23 26 29 32 35 37 36 36 36 37 38 39 39 40 41 42 44 45
5 5 6 7 7 7 7 7 9 12 14 16 19 21 23 25 29 32 35 38 41 40 39 40 40 42 42 43 43 44 46 48 49
7 8 8 8 9 9 9 10 12 14 16 19 21 24 26 29 33 36 39 41 43 42 42 43 44 45 47 48 49 50 51 52 51
10 10 10 10 11 11 12 14 16 18 21 22 25 29 32 35 38 40 41 44 44 45 46 47 48 50 52 54 56 55 54 51 44
13 13 13 13 14 16 17 19 20 22 23 26 29 32 35 38 39 41 44 46 46 47 49 51 53 55 57 58 53 46 38 33 33
15 16 16 16 17 18 19 20 22 24 25 28 31 34 37 39 41 44 46 47 48 50 53 55 57 56 53 47 41 35 36 35 35
18 18 19 19 19 21 22 24 25 26 27 30 33 37 39 41 44 46 47 48 50 53 55 56 54 46 40 35 34 35 33 36 38
21 20 20 20 21 21 23 24 26 28 29 32 36 39 41 44 47 48 48 50 53 54 56 53 41 36 40 30 35 32 34 34 31
24 23 24 24 24 23 24 25 27 29 32 35 39 40 44 47 47 48 49 52 53 54 53 40 33 36 36 29 32 30 33 30 28
25 26 28 28 27 26 25 27 29 31 34 37 40 42 46 47 47 48 51 52 54 54 41 32 33 35 28 27 29 29 30 28 27
25 28 29 29 29 28 28 29 30 32 34 39 41 44 47 46 47 49 51 52 52 43 30 29 32 33 24 25 27 27 28 26 24
29 28 28 29 30 30 29 31 32 33 36 40 42 46 46 45 48 49 50 49 44 31 25 28 31 29 22 23 25 26 26 24 22
23 24 25 27 28 29 30 31 33 35 38 41 44 45 44 46 48 49 48 44 34 25 25 29 29 28 21 24 22 24 24 22 21
20 23 24 25 27 28 30 32 33 36 39 42 43 42 43 46 47 47 43 37 28 24 27 28 28 27 21 22 19 21 22 21 18
20 21 22 23 24 26 29 31 34 38 40 41 39 41 43 45 45 43 37 29 24 26 29 27 26 28 21 23 19 19 21 21 19
20 21 22 22 24 27 29 32 35 38 38 37 38 40 42 43 43 38 29 24 24 27 27 26 26 27 23 21 20 20 20 20 20
22 23 24 25 27 29 32 34 35 35 36 37 38 40 41 40 39 32 25 23 25 28 28 27 24 25 26 24 21 19 19 18 18
24 25 26 28 29 31 32 32 33 35 36 37 39 40 40 39 38 28 24 24 26 28 28 28 27 25 25 25 23 21 20 18 16
28 28 30 31 31 31 32 33 34 35 36 37 39 39 39 39 36 27 25 26 28 30 31 30 27 26 25 25 25 23 21 20 19
Wind_Direction
240 257 248 248 281 312 323 335 343 350 352 350 345 342 342 340 339 339 338 338 334 329 324 320 316 315 312 309 306 303 300 300 299
254 264 255 264 282 292 305 320 332 337 337 337 336 335 335 334 336 336 334 334 332 327 322 319 317 316 314 311 308 305 302 299 298
262 264 266 270 278 282 292 306 318 323 327 328 327 328 331 333 332 332 330 329 329 326 323 321 320 319 316 313 309 306 303 301 300
265 267 272 273 271 275 285 302 310 314 316 319 324 328 329 329 326 328 327 325 326 325 324 323 322 319 316 314 311 308 305 302 298
268 270 276 279 281 283 288 297 305 311 314 316 319 323 325 326 326 326 325 326 326 326 325 323 322 319 317 316 315 311 305 299 293
271 273 276 281 284 284 287 294 303 309 311 316 320 321 322 323 324 325 325 326 327 326 325 324 322 321 320 319 314 306 303 301 299
269 272 275 278 286 291 294 298 303 309 314 318 319 319 321 322 324 324 326 327 327 326 326 326 325 325 323 318 316 314 309 306 301
271 274 276 280 285 293 296 299 301 307 312 315 318 319 321 324 325 325 327 327 327 327 328 327 328 325 325 323 325 319 314 312 309
272 275 278 280 283 290 295 296 299 306 311 315 318 318 321 325 325 326 327 328 329 329 328 329 327 328 329 319 328 325 324 324 324
271 274 276 278 284 288 293 297 301 304 309 314 316 317 322 323 325 327 328 329 330 328 327 325 326 328 330 323 330 330 335 332 326
269 273 275 277 281 285 291 297 301 305 308 312 315 319 321 324 326 328 329 330 328 326 325 327 328 331 331 332 332 337 339 333 331
273 278 276 276 278 284 289 297 301 305 308 313 316 318 321 324 326 329 330 330 327 326 327 328 329 332 330 334 336 343 341 338 338
271 276 277 277 277 282 287 295 298 304 309 311 315 318 321 325 327 329 330 330 327 329 330 330 331 333 327 333 336 343 343 339 343
276 277 278 279 280 281 286 293 298 305 308 312 315 318 323 326 328 330 332 329 330 332 331 330 332 333 327 333 339 343 344 342 345
282 282 283 283 281 283 287 292 298 305 308 312 315 320 324 326 329 331 330 329 332 333 330 330 333 334 326 331 335 341 345 345 345
288 289 286 284 285 286 289 296 300 303 308 311 318 322 324 326 329 330 329 330 335 335 332 332 334 336 327 329 329 335 340 341 343
289 291 290 291 290 291 295 299 301 304 308 314 318 323 324 326 328 328 328 331 333 334 332 332 334 336 329 323 324 328 335 339 339
288 289 291 292 292 294 296 297 300 305 309 314 318 320 323 325 325 321 323 326 330 332 334 329 327 330 333 323 318 319 323 330 334
286 288 290 291 292 294 296 300 303 306 309 314 317 319 321 323 321 311 315 318 321 324 328 327 324 322 324 326 317 311 313 314 318
286 288 288 290 292 294 297 300 302 306 309 313 315 317 319 318 318 301 306 310 314 318 320 321 319 318 318 320 322 313 304 304 304